Weather in Ivanteevka

Russia / Saratov Oblast     52°16′03″N   49°06′09″E
temp.,
°C
wind,
m/s
gust,
m/s
humid.,
%
clouds,
%
prec.,
mm/h
press.,
hPa
HPBL,
m
22 october, fri
fri2201:00+11wsw81673100 0.3 1008539
04:00+9wsw71575100 0.3 1008420
07:00+9sw71575100 0.0 1007439
10:00+10sw91763100 0.0 1008634
13:00+13sw91658100 0.0 1008857
16:00+14sw915588 0.0 10081001
19:00+13sw816655 0.0 1009557
22:00+12sw71568100 0.0 1010547
23 october, sat
sat2301:00+11sw6137718 0.0 1011317
04:00+9sw4118828 0.0 1012213
07:00+8sw4119221 0.0 1013219
10:00+11wsw6107293 0.0 1014458
13:00+15sw8144673 0.0 10141390
16:00+15wsw5945100 0.0 1014795
19:00+12ssw4959100 0.0 1014171
22:00+12ssw51467100 0.6 1013395
24 october, sun
sun2401:00+12ssw3882100 0.4 1012219
04:00+11wsw4792100 1.7 1010340
07:00+9w3891100 2.8 1011516
10:00+10w687024 2.9 1012707
13:00+11w67495 0.0 10131200
16:00+11w564833 0.0 10131241
19:00+7w366498 0.0 1014115
22:00+6w2366100 0.0 101440
25 october, mon
mon2501:00+6w2368100 0.0 101447
04:00+5w3370100 0.0 101461
07:00+4nnw367998 0.0 1015143
10:00+5nnw57705 0.0 1016506
13:00+7nnw675269 0.0 10171370
16:00+6nnw787091 0.1 10181031
19:00+4n8117085 0.2 10221098
22:00+2n712601 0.2 1025805
26 october, tue
tue2601:000n511665 0.0 1027497
04:00−1nnw497598 0.0 1029269
07:00−2nnw36805 0.0 1031131
10:00+2nw355694 0.0 1032342
13:00+5wnw34354 0.0 1031813
16:00+5w56349 0.0 1030797
19:00+2wsw410445 0.0 1030201
22:00+1wsw4104993 0.0 1030227